LPA1260 UHWW-UHHH

Flight info

Callsign LPA1260
Flight time N/A
Altitude 33000
Route DOLMA2F DOLMA B356 TD B355 ARDEL ARDEL6D
Aircraft A320/M-SDE3FGHIRWY/LB1

Departure

Time 2026-04-20 19:49
Airport Vladivostok International Airport (UHWW)

Arrival

Time N/A
Airport Khabarovsk Novy Airport (UHHH)
Time Latitude Longitude Altitude Speed Heading
2026-04-20 18:36 43.39745 132.16561 70 ft 0 kts 152°
2026-04-20 19:22 43.39755 132.16554 60 ft 2 kts 149°
2026-04-20 19:22 43.39769 132.16543 62 ft 2 kts 147°
2026-04-20 19:22 43.39783 132.16530 65 ft 2 kts 146°
2026-04-20 19:22 43.39796 132.16517 66 ft 2 kts 140°
2026-04-20 19:23 43.39808 132.16503 61 ft 2 kts 133°
2026-04-20 19:23 43.39819 132.16485 64 ft 2 kts 115°
2026-04-20 19:23 43.39823 132.16464 63 ft 2 kts 101°
2026-04-20 19:23 43.39831 132.16444 65 ft 2 kts 142°
2026-04-20 19:24 43.39844 132.16431 63 ft 2 kts 148°
2026-04-20 19:24 43.39859 132.16420 63 ft 2 kts 151°
2026-04-20 19:24 43.39865 132.16415 63 ft 0 kts 151°
2026-04-20 19:26 43.39861 132.16418 65 ft 4 kts 151°
2026-04-20 19:26 43.39824 132.16463 63 ft 9 kts 95°
2026-04-20 19:26 43.39847 132.16541 63 ft 8 kts 59°
2026-04-20 19:27 43.39871 132.16600 64 ft 6 kts 62°
2026-04-20 19:27 43.39883 132.16628 65 ft 0 kts 60°
2026-04-20 19:35 43.39885 132.16635 68 ft 4 kts 60°
2026-04-20 19:35 43.39917 132.16713 65 ft 13 kts 61°
2026-04-20 19:36 43.39968 132.16840 69 ft 17 kts 61°
2026-04-20 19:36 43.40026 132.16983 68 ft 15 kts 61°
2026-04-20 19:36 43.40076 132.17090 69 ft 2 kts 30°
2026-04-20 19:36 43.40088 132.17093 65 ft 1 kts
2026-04-20 19:37 43.40089 132.17093 65 ft 0 kts
2026-04-20 19:38 43.40109 132.17087 67 ft 9 kts 343°
2026-04-20 19:38 43.40128 132.17074 64 ft 3 kts 332°
2026-04-20 19:38 43.40152 132.17057 65 ft 0 kts 332°
2026-04-20 19:39 43.40154 132.17055 66 ft 2 kts 332°
2026-04-20 19:39 43.40194 132.17027 65 ft 5 kts 332°
2026-04-20 19:39 43.40195 132.17027 65 ft 0 kts 332°
2026-04-20 19:41 43.40197 132.17025 67 ft 3 kts 332°
2026-04-20 19:42 43.40254 132.16984 66 ft 12 kts 332°
2026-04-20 19:42 43.40265 132.16975 66 ft 0 kts 332°
2026-04-20 19:43 43.40279 132.16965 61 ft 0 kts 332°
2026-04-20 19:44 43.40292 132.16955 61 ft 7 kts 332°
2026-04-20 19:44 43.40338 132.16924 64 ft 0 kts 333°
2026-04-20 19:44 43.40338 132.16923 64 ft 0 kts 333°
2026-04-20 19:47 43.40352 132.16913 62 ft 7 kts 333°
2026-04-20 19:47 43.40396 132.16882 65 ft 14 kts 330°
2026-04-20 19:47 43.40418 132.16760 58 ft 0 kts 240°
2026-04-20 19:48 43.40414 132.16751 61 ft 6 kts 240°
2026-04-20 19:48 43.40316 132.16510 62 ft 62 kts 241°
2026-04-20 19:48 43.39999 132.15725 66 ft 123 kts 241°
2026-04-20 19:49 43.39501 132.14491 68 ft 170 kts 241°
2026-04-20 19:49 43.38915 132.13045 646 ft 173 kts 241°
2026-04-20 19:49 43.38334 132.11600 1480 ft 172 kts 240°
2026-04-20 19:49 43.37717 132.10089 1792 ft 197 kts 240°
2026-04-20 19:50 43.36991 132.08325 2126 ft 221 kts 241°
2026-04-20 19:50 43.36255 132.06505 3132 ft 215 kts 244°
2026-04-20 19:50 43.35531 132.04711 4048 ft 215 kts 245°
2026-04-20 19:50 43.34719 132.02872 4539 ft 237 kts 242°
2026-04-20 19:51 43.33782 132.00945 5244 ft 246 kts 241°
2026-04-20 19:51 43.32814 131.99010 5816 ft 251 kts 241°
2026-04-20 19:51 43.31813 131.97047 5953 ft 250 kts 241°
2026-04-20 19:51 43.30815 131.95099 5977 ft 249 kts 241°
2026-04-20 19:52 43.29814 131.93148 5980 ft 249 kts 241°
2026-04-20 19:52 43.28818 131.91206 5981 ft 249 kts 241°
2026-04-20 19:52 43.27929 131.89191 5979 ft 242 kts 256°
2026-04-20 19:52 43.27806 131.86956 5980 ft 234 kts 284°
2026-04-20 19:53 43.28550 131.85032 5979 ft 236 kts 312°
2026-04-20 19:53 43.30009 131.83922 6220 ft 252 kts 343°
2026-04-20 19:53 43.31799 131.84063 7068 ft 269 kts 11°
2026-04-20 19:53 43.33556 131.85078 7923 ft 277 kts 18°
2026-04-20 19:54 43.35306 131.86257 8559 ft 283 kts 19°
2026-04-20 19:54 43.37064 131.87469 8695 ft 282 kts 18°
2026-04-20 19:54 43.38769 131.88669 8700 ft 283 kts 19°
2026-04-20 19:54 43.40540 131.89932 8699 ft 283 kts 19°
2026-04-20 19:55 43.42294 131.91180 8703 ft 282 kts 19°
2026-04-20 19:55 43.44050 131.92416 8958 ft 285 kts 19°
2026-04-20 19:55 43.45818 131.93663 9854 ft 287 kts 19°
2026-04-20 19:55 43.47672 131.94962 10128 ft 310 kts 19°
2026-04-20 19:56 43.49665 131.96331 10483 ft 327 kts 19°
2026-04-20 19:56 43.51724 131.97738 11151 ft 332 kts 19°
2026-04-20 19:56 43.53814 131.99165 11864 ft 337 kts 19°
2026-04-20 19:56 43.55898 132.00590 12569 ft 341 kts 19°
2026-04-20 19:57 43.57979 132.02239 13251 ft 354 kts 31°
2026-04-20 19:57 43.59709 132.04753 13876 ft 368 kts 45°
2026-04-20 19:57 43.61321 132.07529 14456 ft 373 kts 45°
2026-04-20 19:57 43.62934 132.10351 15074 ft 377 kts 46°
2026-04-20 19:58 43.64564 132.13217 15692 ft 380 kts 46°
2026-04-20 19:58 43.66203 132.16109 16297 ft 384 kts 46°
2026-04-20 19:58 43.67859 132.19028 16912 ft 388 kts 46°
2026-04-20 19:58 43.69534 132.21976 17537 ft 391 kts 46°
2026-04-20 19:59 43.71225 132.24947 18113 ft 395 kts 46°
2026-04-20 19:59 43.72932 132.27947 18604 ft 399 kts 46°
2026-04-20 19:59 43.74657 132.30981 19074 ft 404 kts 46°
2026-04-20 19:59 43.76404 132.34050 19538 ft 408 kts 46°
2026-04-20 20:00 43.78147 132.37116 20002 ft 412 kts 46°
2026-04-20 20:00 43.79930 132.40258 20461 ft 417 kts 47°
2026-04-20 20:00 43.81730 132.43436 20916 ft 421 kts 47°
2026-04-20 20:00 43.83546 132.46645 21327 ft 425 kts 47°
2026-04-20 20:01 43.85380 132.49890 21724 ft 429 kts 47°
2026-04-20 20:01 43.87226 132.53162 22208 ft 433 kts 47°
2026-04-20 20:01 43.89091 132.56473 22603 ft 438 kts 47°
2026-04-20 20:01 43.90974 132.59825 23017 ft 442 kts 47°
2026-04-20 20:02 43.92878 132.63212 23402 ft 446 kts 47°
2026-04-20 20:02 43.94790 132.66620 23776 ft 449 kts 48°
2026-04-20 20:02 43.96710 132.70050 24161 ft 450 kts 48°
2026-04-20 20:02 43.98635 132.73493 24540 ft 452 kts 48°
2026-04-20 20:03 44.00545 132.76910 24941 ft 454 kts 49°
2026-04-20 20:03 44.02483 132.80375 25356 ft 455 kts 49°
2026-04-20 20:03 44.04427 132.83856 25744 ft 456 kts 50°
2026-04-20 20:03 44.06371 132.87344 26118 ft 457 kts 50°
2026-04-20 20:04 44.08330 132.90853 26493 ft 458 kts 50°
2026-04-20 20:04 44.10289 132.94366 26868 ft 460 kts 50°
2026-04-20 20:04 44.12256 132.97899 27227 ft 461 kts 51°
2026-04-20 20:04 44.14224 133.01446 27592 ft 463 kts 51°
2026-04-20 20:05 44.16169 133.04959 27906 ft 466 kts 52°
2026-04-20 20:05 44.18156 133.08545 28221 ft 468 kts 52°
2026-04-20 20:05 44.20315 133.11942 28545 ft 470 kts 43°
2026-04-20 20:05 44.22821 133.14891 28865 ft 471 kts 36°
2026-04-20 20:06 44.25468 133.17598 29177 ft 473 kts 36°
2026-04-20 20:06 44.28127 133.20326 29479 ft 475 kts 36°
2026-04-20 20:06 44.30795 133.23073 29752 ft 478 kts 37°
2026-04-20 20:06 44.33486 133.25854 29879 ft 484 kts 37°
2026-04-20 20:07 44.36204 133.28671 29996 ft 489 kts 37°
2026-04-20 20:07 44.38949 133.31520 30152 ft 493 kts 37°
2026-04-20 20:07 44.41713 133.34391 30350 ft 496 kts 37°
2026-04-20 20:07 44.44489 133.37266 30561 ft 498 kts 36°
2026-04-20 20:08 44.47283 133.40162 30849 ft 498 kts 36°
2026-04-20 20:08 44.50027 133.43007 31188 ft 497 kts 36°
2026-04-20 20:08 44.52813 133.45902 31444 ft 498 kts 36°
2026-04-20 20:08 44.55598 133.48805 31722 ft 499 kts 36°
2026-04-20 20:09 44.58385 133.51716 32006 ft 499 kts 36°
2026-04-20 20:09 44.61171 133.54629 32291 ft 499 kts 36°
2026-04-20 20:09 44.63956 133.57541 32554 ft 500 kts 36°
2026-04-20 20:10 44.69489 133.63326 32635 ft 489 kts 37°
2026-04-20 20:10 44.74922 133.69047 32645 ft 487 kts 37°
2026-04-20 20:11 44.80336 133.74766 32646 ft 486 kts 37°
2026-04-20 20:11 44.85721 133.80450 32631 ft 486 kts 37°
2026-04-20 20:12 44.91135 133.86173 32635 ft 486 kts 37°
2026-04-20 20:12 44.96614 133.91802 32623 ft 486 kts 35°
2026-04-20 20:13 45.04956 133.99975 32606 ft 486 kts 36°
2026-04-20 20:13 45.10492 134.05474 32643 ft 486 kts 36°
2026-04-20 20:14 45.15973 134.10977 32642 ft 485 kts 36°
2026-04-20 20:14 45.21478 134.16518 32620 ft 485 kts 37°
2026-04-20 20:15 45.26992 134.22062 32614 ft 485 kts 37°
2026-04-20 20:15 45.32500 134.27609 32611 ft 485 kts 37°
2026-04-20 20:16 45.38002 134.33182 32598 ft 485 kts 37°
2026-04-20 20:16 45.43466 134.38735 32582 ft 486 kts 37°
2026-04-20 20:17 45.48975 134.44342 32592 ft 486 kts 37°
2026-04-20 20:17 45.54479 134.49959 32574 ft 487 kts 38°
2026-04-20 20:18 45.59995 134.55592 32571 ft 487 kts 38°
2026-04-20 20:18 45.65503 134.61236 32631 ft 487 kts 38°
2026-04-20 20:19 45.71009 134.66885 32617 ft 487 kts 38°
2026-04-20 20:19 45.76510 134.72546 32593 ft 486 kts 38°
2026-04-20 20:20 45.81999 134.78213 32600 ft 486 kts 38°
2026-04-20 20:20 45.87594 134.83656 32604 ft 488 kts 28°
2026-04-20 20:21 45.90769 134.85405 32605 ft 489 kts 13°
2026-04-20 20:21 45.94133 134.86008 32578 ft 488 kts 357°
2026-04-20 20:21 46.00802 134.84544 32576 ft 485 kts 347°
2026-04-20 20:22 46.07402 134.82736 32593 ft 486 kts 347°
2026-04-20 20:22 46.14058 134.80922 32575 ft 487 kts 347°
2026-04-20 20:23 46.20777 134.79121 32588 ft 498 kts 347°
2026-04-20 20:23 46.27650 134.77281 32548 ft 505 kts 347°
2026-04-20 20:24 46.34506 134.75436 32575 ft 494 kts 347°
2026-04-20 20:24 46.41235 134.73616 32571 ft 490 kts 347°
2026-04-20 20:25 46.47931 134.71789 32566 ft 489 kts 347°
2026-04-20 20:25 46.54627 134.69956 32598 ft 489 kts 347°
2026-04-20 20:26 46.61385 134.68714 32575 ft 493 kts
2026-04-20 20:26 46.64749 134.69588 32577 ft 490 kts 20°
2026-04-20 20:26 46.67824 134.71652 32553 ft 483 kts 37°
2026-04-20 20:27 46.70393 134.74729 32550 ft 473 kts 53°
2026-04-20 20:27 46.72345 134.78447 32543 ft 465 kts 62°
2026-04-20 20:27 46.75969 134.86284 32514 ft 466 kts 62°
2026-04-20 20:28 46.80233 134.93514 32550 ft 484 kts 38°
2026-04-20 20:28 46.83232 134.95808 32547 ft 490 kts 20°
2026-04-20 20:28 46.86573 134.96786 32535 ft 491 kts
2026-04-20 20:29 46.89961 134.96384 32531 ft 487 kts 343°
2026-04-20 20:29 46.93098 134.94677 32526 ft 478 kts 326°
2026-04-20 20:29 46.94924 134.92930 32518 ft 471 kts 315°
2026-04-20 20:29 46.97181 134.89560 32505 ft 457 kts 298°
2026-04-20 20:30 47.00750 134.81907 32510 ft 460 kts 302°
2026-04-20 20:30 47.05092 134.74842 32539 ft 483 kts 319°
2026-04-20 20:31 47.08073 134.72397 32541 ft 499 kts 336°
2026-04-20 20:31 47.11469 134.71160 32537 ft 507 kts 353°
2026-04-20 20:31 47.14992 134.71253 32521 ft 508 kts 11°
2026-04-20 20:31 47.18361 134.72690 32531 ft 503 kts 27°
2026-04-20 20:32 47.21328 134.75351 32558 ft 495 kts 45°
2026-04-20 20:32 47.23653 134.78991 32579 ft 483 kts 62°
2026-04-20 20:32 47.26934 134.87455 32632 ft 479 kts 68°
2026-04-20 20:33 47.30099 134.96089 32643 ft 479 kts 68°
2026-04-20 20:33 47.33292 135.04720 32695 ft 479 kts 68°
2026-04-20 20:34 47.34891 135.09042 32518 ft 479 kts 68°
2026-04-20 20:34 47.36490 135.13352 32524 ft 479 kts 68°
2026-04-20 20:34 47.39693 135.21983 32512 ft 479 kts 68°
2026-04-20 20:35 47.42881 135.30564 32496 ft 479 kts 68°
2026-04-20 20:35 47.46115 135.39201 32503 ft 480 kts 68°
2026-04-20 20:36 47.49362 135.47840 32484 ft 481 kts 68°
2026-04-20 20:36 47.52627 135.56497 32490 ft 481 kts 68°
2026-04-20 20:37 47.55902 135.65154 32488 ft 482 kts 68°
2026-04-20 20:37 47.59182 135.73740 32493 ft 482 kts 68°
2026-04-20 20:38 47.62814 135.82075 32506 ft 485 kts 58°
2026-04-20 20:38 47.66355 135.90514 32502 ft 481 kts 68°
2026-04-20 20:39 47.68167 135.94683 32447 ft 483 kts 57°
2026-04-20 20:39 47.70596 135.98162 32441 ft 490 kts 41°
2026-04-20 20:39 47.73590 136.00645 32445 ft 497 kts 23°
2026-04-20 20:39 47.76961 136.01861 32488 ft 501 kts
2026-04-20 20:40 47.80389 136.01695 32491 ft 498 kts 347°
2026-04-20 20:40 47.83675 136.00207 32485 ft 491 kts 330°
2026-04-20 20:40 47.86557 135.97573 32491 ft 482 kts 317°
2026-04-20 20:40 47.89244 135.94573 32487 ft 483 kts 317°
2026-04-20 20:41 47.94648 135.88576 32478 ft 484 kts 317°
2026-04-20 20:41 48.00050 135.82590 32506 ft 483 kts 317°
2026-04-20 20:42 48.05426 135.76592 32480 ft 482 kts 317°
2026-04-20 20:42 48.10794 135.70567 32475 ft 484 kts 317°
2026-04-20 20:43 48.16190 135.64514 32471 ft 485 kts 317°
2026-04-20 20:43 48.21576 135.58474 32466 ft 483 kts 317°
2026-04-20 20:44 48.26942 135.52411 32452 ft 482 kts 317°
2026-04-20 20:44 48.32273 135.46369 32482 ft 486 kts 317°
2026-04-20 20:45 48.34980 135.43296 32621 ft 491 kts 317°
2026-04-20 20:45 48.37725 135.40177 32865 ft 493 kts 318°
2026-04-20 20:45 48.40457 135.37075 33215 ft 492 kts 318°
2026-04-20 20:45 48.43190 135.33976 33580 ft 490 kts 318°
2026-04-20 20:46 48.45907 135.30889 33902 ft 488 kts 318°
2026-04-20 20:46 48.48611 135.27811 34183 ft 487 kts 318°
2026-04-20 20:46 48.51170 135.24513 34445 ft 480 kts 308°
2026-04-20 20:46 48.53240 135.20638 34704 ft 470 kts 296°
2026-04-20 20:47 48.54772 135.16355 34968 ft 460 kts 286°
2026-04-20 20:47 48.55764 135.11821 35170 ft 451 kts 276°
2026-04-20 20:47 48.56399 135.07190 35377 ft 450 kts 275°
2026-04-20 20:47 48.57022 135.02561 35597 ft 450 kts 275°
2026-04-20 20:48 48.57644 134.97930 35813 ft 450 kts 275°
2026-04-20 20:48 48.58263 134.93309 36027 ft 449 kts 275°
2026-04-20 20:48 48.58882 134.88682 36234 ft 449 kts 275°
2026-04-20 20:48 48.59499 134.84057 36403 ft 449 kts 275°
2026-04-20 20:49 48.60717 134.74851 36451 ft 449 kts 275°
2026-04-20 20:49 48.61937 134.65603 36475 ft 449 kts 276°
2026-04-20 20:50 48.63152 134.56341 36468 ft 449 kts 276°
2026-04-20 20:50 48.64365 134.47062 36468 ft 449 kts 275°
2026-04-20 20:51 48.65561 134.37787 36472 ft 449 kts 275°
2026-04-20 20:51 48.66747 134.28497 36481 ft 451 kts 275°
2026-04-20 20:52 48.67939 134.19080 36485 ft 461 kts 275°
2026-04-20 20:52 48.69157 134.09464 36486 ft 469 kts 276°
2026-04-20 20:53 48.70394 133.99667 36491 ft 477 kts 276°
2026-04-20 20:53 48.71627 133.89795 36485 ft 481 kts 275°
2026-04-20 20:54 48.72858 133.79815 36519 ft 482 kts 276°
2026-04-20 20:54 48.74086 133.69834 36500 ft 482 kts 276°
2026-04-20 20:55 48.75313 133.59825 36508 ft 482 kts 276°
2026-04-20 20:55 48.76527 133.49823 36507 ft 482 kts 276°
2026-04-20 20:56 48.77729 133.39825 36512 ft 482 kts 276°
2026-04-20 20:56 48.78914 133.29812 36527 ft 482 kts 276°
2026-04-20 20:57 48.80091 133.19869 36548 ft 482 kts 276°
2026-04-20 20:57 48.81262 133.09837 36542 ft 483 kts 276°
2026-04-20 20:58 48.82424 132.99810 36541 ft 483 kts 276°
2026-04-20 20:58 48.83999 132.89897 36561 ft 488 kts 289°
2026-04-20 20:59 48.86947 132.80566 36555 ft 490 kts 292°
2026-04-20 20:59 48.89934 132.71241 36556 ft 490 kts 292°
2026-04-20 21:00 48.92890 132.61900 36546 ft 490 kts 292°
2026-04-20 21:00 48.95836 132.52536 36551 ft 490 kts 292°
2026-04-20 21:01 48.98785 132.43171 36548 ft 490 kts 292°
2026-04-20 21:01 49.01725 132.33795 36557 ft 490 kts 292°
2026-04-20 21:02 49.04649 132.24423 36536 ft 489 kts 292°
2026-04-20 21:02 49.07565 132.15041 36538 ft 489 kts 292°
2026-04-20 21:03 49.10477 132.05657 36540 ft 489 kts 292°
2026-04-20 21:03 49.12892 131.97855 36538 ft 489 kts 292°
2026-04-20 21:04 49.15789 131.88456 36539 ft 489 kts 292°
2026-04-20 21:04 49.17702 131.82220 36536 ft 476 kts 292°
2026-04-20 21:04 49.19083 131.77719 36542 ft 460 kts 292°
2026-04-20 21:05 49.21747 131.68987 36542 ft 449 kts 291°
2026-04-20 21:05 49.24371 131.60332 36544 ft 447 kts 292°
2026-04-20 21:06 49.26964 131.51762 36546 ft 447 kts 292°
2026-04-20 21:06 49.29578 131.43126 36543 ft 447 kts 292°
2026-04-20 21:07 49.32200 131.34428 36543 ft 447 kts 292°
2026-04-20 21:07 49.34781 131.25831 36559 ft 447 kts 292°
2026-04-20 21:08 49.37371 131.17170 36553 ft 446 kts 292°
2026-04-20 21:08 49.39951 131.08513 36550 ft 446 kts 292°
2026-04-20 21:09 49.42522 130.99834 36550 ft 446 kts 292°
2026-04-20 21:09 49.45092 130.91158 36544 ft 446 kts 292°
2026-04-20 21:10 49.47653 130.82480 36565 ft 445 kts 292°
2026-04-20 21:10 49.50207 130.73784 36531 ft 447 kts 292°
2026-04-20 21:11 49.52763 130.65040 36524 ft 449 kts 292°
2026-04-20 21:11 49.55321 130.56266 36527 ft 450 kts 292°
2026-04-20 21:12 49.57880 130.47466 36540 ft 450 kts 292°
2026-04-20 21:12 49.60007 130.40139 36542 ft 450 kts 292°
2026-04-20 21:13 49.62551 130.31318 36544 ft 450 kts 292°
2026-04-20 21:13 49.65084 130.22485 36545 ft 450 kts 292°
2026-04-20 21:14 49.66349 130.18059 36437 ft 451 kts 292°
2026-04-20 21:14 49.67613 130.13631 36183 ft 450 kts 292°
2026-04-20 21:14 49.68875 130.09223 35674 ft 448 kts 292°
2026-04-20 21:14 49.70133 130.04823 35112 ft 447 kts 292°
2026-04-20 21:15 49.71382 130.00440 34588 ft 445 kts 292°
2026-04-20 21:15 49.72623 129.96074 34059 ft 443 kts 292°
2026-04-20 21:15 49.73859 129.91724 33523 ft 442 kts 292°
2026-04-20 21:15 49.75090 129.87386 32936 ft 439 kts 292°
2026-04-20 21:16 49.76307 129.83077 32415 ft 435 kts 292°
2026-04-20 21:16 49.77510 129.78805 31897 ft 432 kts 292°
2026-04-20 21:16 49.78703 129.74553 31385 ft 429 kts 292°
2026-04-20 21:16 49.79888 129.70331 30877 ft 426 kts 292°
2026-04-20 21:17 49.81064 129.66133 30380 ft 424 kts 292°
2026-04-20 21:17 49.82235 129.61957 29861 ft 422 kts 292°
2026-04-20 21:17 49.83398 129.57801 29332 ft 419 kts 292°
2026-04-20 21:17 49.84547 129.53684 28850 ft 414 kts 292°
2026-04-20 21:18 49.85680 129.49620 28393 ft 408 kts 292°
2026-04-20 21:18 49.86786 129.45659 27951 ft 403 kts 292°
2026-04-20 21:18 49.87887 129.41691 27510 ft 398 kts 292°
2026-04-20 21:18 49.88971 129.37770 27070 ft 393 kts 292°
2026-04-20 21:19 49.90042 129.33890 26630 ft 389 kts 292°
2026-04-20 21:19 49.91102 129.30048 26189 ft 385 kts 292°
2026-04-20 21:19 49.92153 129.26245 25743 ft 382 kts 292°
2026-04-20 21:20 49.94246 129.18656 24123 ft 385 kts 292°
2026-04-20 21:20 49.95297 129.14822 23139 ft 386 kts 292°
2026-04-20 21:20 49.96346 129.10985 22102 ft 385 kts 293°
2026-04-20 21:20 49.97382 129.07196 21276 ft 378 kts 293°
2026-04-20 21:21 49.98401 129.03469 20482 ft 372 kts 293°
2026-04-20 21:21 49.99397 128.99819 19897 ft 360 kts 293°
2026-04-20 21:21 50.00358 128.96297 19505 ft 352 kts 293°
2026-04-20 21:21 50.01308 128.92803 19076 ft 350 kts 293°
2026-04-20 21:22 50.02253 128.89331 18649 ft 348 kts 293°
2026-04-20 21:22 50.03193 128.85869 18225 ft 346 kts 293°
2026-04-20 21:22 50.04127 128.82421 17797 ft 345 kts 293°
2026-04-20 21:22 50.05056 128.78991 17338 ft 343 kts 293°
2026-04-20 21:23 50.05976 128.75589 16929 ft 339 kts 293°
2026-04-20 21:23 50.06872 128.72261 16528 ft 336 kts 292°
2026-04-20 21:23 50.07768 128.68913 16129 ft 333 kts 292°
2026-04-20 21:23 50.08655 128.65593 15737 ft 331 kts 292°
2026-04-20 21:24 50.09537 128.62293 15351 ft 329 kts 292°
2026-04-20 21:24 50.10413 128.59018 14956 ft 327 kts 293°
2026-04-20 21:24 50.11285 128.55757 14571 ft 325 kts 293°
2026-04-20 21:24 50.12151 128.52517 14195 ft 323 kts 293°
2026-04-20 21:25 50.13013 128.49284 13812 ft 322 kts 293°
2026-04-20 21:25 50.13871 128.46065 13438 ft 320 kts 293°
2026-04-20 21:25 50.14724 128.42868 13027 ft 319 kts 293°
2026-04-20 21:25 50.15571 128.39689 12644 ft 316 kts 292°
2026-04-20 21:26 50.16407 128.36539 12269 ft 313 kts 292°
2026-04-20 21:26 50.17233 128.33410 11876 ft 311 kts 292°
2026-04-20 21:26 50.18054 128.30303 11507 ft 308 kts 292°
2026-04-20 21:26 50.18870 128.27216 11118 ft 306 kts 292°
2026-04-20 21:27 50.19674 128.24168 10870 ft 300 kts 292°
2026-04-20 21:27 50.20455 128.21211 10733 ft 290 kts 292°
2026-04-20 21:27 50.21210 128.18352 10607 ft 280 kts 292°
2026-04-20 21:27 50.21932 128.15617 10474 ft 271 kts 292°
2026-04-20 21:28 50.22791 128.13045 10243 ft 266 kts 310°
2026-04-20 21:28 50.24263 128.11368 9987 ft 263 kts 338°
2026-04-20 21:28 50.26035 128.10862 9729 ft 259 kts
2026-04-20 21:28 50.27750 128.11524 9549 ft 251 kts 27°
2026-04-20 21:29 50.29101 128.13131 9532 ft 243 kts 50°
2026-04-20 21:29 50.29941 128.15385 9532 ft 240 kts 73°
2026-04-20 21:29 50.30157 128.17950 9528 ft 239 kts 96°
2026-04-20 21:29 50.29708 128.20436 9532 ft 240 kts 117°
2026-04-20 21:30 50.28944 128.22772 9506 ft 243 kts 116°
2026-04-20 21:30 50.28200 128.25140 9364 ft 242 kts 116°
2026-04-20 21:30 50.27471 128.27504 9174 ft 241 kts 116°
2026-04-20 21:30 50.26748 128.29855 8846 ft 239 kts 116°
2026-04-20 21:31 50.25930 128.32100 8516 ft 237 kts 130°
2026-04-20 21:31 50.24689 128.33760 8190 ft 235 kts 152°
2026-04-20 21:31 50.23148 128.34550 7858 ft 234 kts 174°
2026-04-20 21:31 50.21562 128.34362 7570 ft 231 kts 197°
2026-04-20 21:32 50.20132 128.33243 7528 ft 232 kts 219°
2026-04-20 21:32 50.19062 128.31376 7535 ft 232 kts 240°
2026-04-20 21:32 50.18512 128.29018 7534 ft 232 kts 262°
2026-04-20 21:32 50.18579 128.26490 7538 ft 247 kts 285°
2026-04-20 21:33 50.19252 128.23972 7530 ft 247 kts 295°
2026-04-20 21:33 50.19978 128.21626 7522 ft 235 kts 296°
2026-04-20 21:33 50.20698 128.19342 7527 ft 234 kts 296°
2026-04-20 21:33 50.21415 128.17064 7535 ft 233 kts 296°
2026-04-20 21:34 50.22127 128.14790 7535 ft 233 kts 297°
2026-04-20 21:34 50.23124 128.12822 7529 ft 233 kts 324°
2026-04-20 21:34 50.24653 128.11908 7535 ft 254 kts 358°
2026-04-20 21:34 50.26407 128.12593 7537 ft 269 kts 33°
2026-04-20 21:35 50.27909 128.14371 7526 ft 273 kts 34°
2026-04-20 21:35 50.29684 128.15313 7533 ft 273 kts
2026-04-20 21:35 50.31486 128.14528 7535 ft 273 kts 326°
2026-04-20 21:35 50.32700 128.12340 7535 ft 273 kts 296°
2026-04-20 21:36 50.33323 128.09538 7532 ft 274 kts 281°
2026-04-20 21:36 50.33566 128.06581 7533 ft 274 kts 277°
2026-04-20 21:36 50.33830 128.03623 7528 ft 274 kts 278°
2026-04-20 21:36 50.34124 128.00670 7534 ft 275 kts 279°
2026-04-20 21:37 50.34423 127.97719 7536 ft 274 kts 279°
2026-04-20 21:37 50.34715 127.94769 7532 ft 274 kts 278°
2026-04-20 21:37 50.34997 127.91824 7533 ft 274 kts 278°
2026-04-20 21:37 50.35269 127.88878 7528 ft 274 kts 278°
2026-04-20 21:38 50.35536 127.85926 7533 ft 274 kts 278°
2026-04-20 21:38 50.35800 127.82980 7531 ft 273 kts 278°
2026-04-20 21:38 50.36064 127.80029 7534 ft 273 kts 278°
2026-04-20 21:38 50.36329 127.77081 7527 ft 273 kts 278°
2026-04-20 21:39 50.36592 127.74132 7524 ft 273 kts 278°
2026-04-20 21:39 50.36852 127.71182 7529 ft 274 kts 278°
2026-04-20 21:39 50.37113 127.68233 7450 ft 273 kts 278°
2026-04-20 21:39 50.37372 127.65295 7037 ft 272 kts 278°
2026-04-20 21:40 50.37628 127.62372 6646 ft 270 kts 278°
2026-04-20 21:40 50.37878 127.59469 6263 ft 268 kts 278°
2026-04-20 21:40 50.38124 127.56583 5884 ft 266 kts 278°
2026-04-20 21:40 50.38370 127.53716 5472 ft 265 kts 278°
2026-04-20 21:41 50.38615 127.50885 4910 ft 261 kts 278°
2026-04-20 21:41 50.38860 127.48081 4243 ft 259 kts 279°
2026-04-20 21:41 50.39387 127.45417 3632 ft 257 kts 300°
2026-04-20 21:41 50.40480 127.43253 3234 ft 253 kts 320°
2026-04-20 21:42 50.41974 127.41864 2854 ft 249 kts 341°
2026-04-20 21:42 50.43633 127.41275 2645 ft 239 kts 349°
2026-04-20 21:42 50.45212 127.40779 2506 ft 221 kts 349°
2026-04-20 21:42 50.46672 127.40300 2124 ft 211 kts 348°
2026-04-20 21:43 50.48087 127.39862 2006 ft 207 kts 355°
2026-04-20 21:43 50.49482 127.40301 2001 ft 208 kts 31°
2026-04-20 21:43 50.50447 127.41968 2002 ft 211 kts 65°
2026-04-20 21:43 50.50875 127.44154 2002 ft 213 kts 75°
2026-04-20 21:44 50.51190 127.46431 1998 ft 210 kts 77°
2026-04-20 21:44 50.51472 127.48619 1994 ft 196 kts 77°
2026-04-20 21:44 50.51725 127.50671 2006 ft 192 kts 79°
2026-04-20 21:44 50.51496 127.52690 2044 ft 195 kts 131°
2026-04-20 21:45 50.50305 127.53563 2040 ft 197 kts 180°
2026-04-20 21:45 50.48963 127.53119 2028 ft 199 kts 197°
2026-04-20 21:45 50.47605 127.52981 2006 ft 198 kts 162°
2026-04-20 21:45 50.46415 127.54024 2001 ft 197 kts 141°
2026-04-20 21:46 50.45363 127.55394 1996 ft 197 kts 137°
2026-04-20 21:46 50.44334 127.56810 1998 ft 197 kts 137°
2026-04-20 21:46 50.43298 127.58214 1995 ft 197 kts 143°
2026-04-20 21:46 50.42012 127.58892 2078 ft 202 kts 179°
2026-04-20 21:47 50.40617 127.58772 2746 ft 200 kts 186°
2026-04-20 21:47 50.39237 127.58533 3374 ft 200 kts 187°
2026-04-20 21:47 50.37868 127.58280 3982 ft 201 kts 187°
2026-04-20 21:47 50.36474 127.58021 4561 ft 203 kts 187°
2026-04-20 21:48 50.35055 127.57756 4945 ft 207 kts 187°
2026-04-20 21:48 50.33632 127.57490 4995 ft 206 kts 187°
2026-04-20 21:48 50.32217 127.57562 4996 ft 204 kts 159°
2026-04-20 21:48 50.31101 127.58850 4998 ft 202 kts 121°
2026-04-20 21:49 50.30686 127.60901 5001 ft 200 kts 93°
2026-04-20 21:49 50.30656 127.63081 5004 ft 200 kts 88°
2026-04-20 21:49 50.30696 127.65257 4999 ft 200 kts 87°
2026-04-20 21:49 50.30749 127.67433 4998 ft 200 kts 86°
2026-04-20 21:50 50.30804 127.69610 4996 ft 200 kts 87°
2026-04-20 21:50 50.30857 127.71786 4997 ft 200 kts 87°
2026-04-20 21:50 50.30910 127.73961 4997 ft 200 kts 86°
2026-04-20 21:50 50.30964 127.76140 4998 ft 200 kts 87°
2026-04-20 21:51 50.31023 127.78380 5010 ft 223 kts 86°
2026-04-20 21:51 50.31091 127.80963 5006 ft 252 kts 87°
2026-04-20 21:51 50.31164 127.83771 4995 ft 262 kts 87°
2026-04-20 21:51 50.31242 127.86628 4993 ft 263 kts 87°
2026-04-20 21:52 50.31329 127.89494 4995 ft 264 kts 84°
2026-04-20 21:52 50.31884 127.92189 4997 ft 262 kts 56°
2026-04-20 21:52 50.33192 127.94112 4998 ft 260 kts 27°
2026-04-20 21:52 50.34919 127.94914 4999 ft 260 kts
2026-04-20 21:53 50.36720 127.95306 4998 ft 262 kts
2026-04-20 21:53 50.38535 127.95633 4998 ft 263 kts
2026-04-20 21:53 50.40357 127.95952 4998 ft 263 kts
2026-04-20 21:53 50.42180 127.96269 4998 ft 263 kts
2026-04-20 21:54 50.44003 127.96586 4998 ft 263 kts
2026-04-20 21:54 50.45825 127.96903 4998 ft 263 kts
2026-04-20 21:54 50.47647 127.97222 4998 ft 264 kts
2026-04-20 21:54 50.49468 127.97542 4998 ft 263 kts
2026-04-20 21:55 50.51270 127.97855 4998 ft 264 kts
2026-04-20 21:55 50.53116 127.98182 4998 ft 264 kts
2026-04-20 21:55 50.54912 127.98502 4996 ft 263 kts
2026-04-20 21:55 50.56732 127.98713 4995 ft 263 kts 355°
2026-04-20 21:56 50.58447 127.97850 4774 ft 258 kts 328°
2026-04-20 21:56 50.59680 127.95871 4144 ft 254 kts 297°
2026-04-20 21:56 50.60262 127.93220 3994 ft 259 kts 281°
2026-04-20 21:56 50.60512 127.90529 3986 ft 237 kts 277°
2026-04-20 21:57 50.60699 127.87984 3994 ft 232 kts 277°
2026-04-20 21:57 50.60878 127.85462 3997 ft 232 kts 277°
2026-04-20 21:57 50.60962 127.82934 3998 ft 233 kts 264°
2026-04-20 21:57 50.60767 127.80402 3997 ft 233 kts 265°
2026-04-20 21:58 50.60647 127.77863 3997 ft 232 kts 266°
2026-04-20 21:58 50.60543 127.75324 3997 ft 232 kts 266°
2026-04-20 21:58 50.60442 127.72790 3997 ft 232 kts 267°
2026-04-20 21:58 50.60338 127.70255 3997 ft 232 kts 267°
2026-04-20 21:59 50.60236 127.67718 3997 ft 232 kts 266°
2026-04-20 21:59 50.60123 127.65189 3997 ft 231 kts 262°
2026-04-20 21:59 50.59829 127.62773 3992 ft 213 kts 257°
2026-04-20 21:59 50.59510 127.60620 3993 ft 193 kts 257°
2026-04-20 22:00 50.59202 127.58608 3993 ft 185 kts 257°
2026-04-20 22:00 50.58902 127.56656 4001 ft 183 kts 257°
2026-04-20 22:00 50.58605 127.54717 4003 ft 182 kts 257°
2026-04-20 22:00 50.58309 127.52784 4003 ft 182 kts 257°
2026-04-20 22:01 50.58009 127.50844 4004 ft 182 kts 257°
2026-04-20 22:01 50.57713 127.48934 3995 ft 176 kts 257°
2026-04-20 22:01 50.57426 127.47079 3997 ft 173 kts 257°
2026-04-20 22:01 50.57141 127.45238 3999 ft 173 kts 257°
2026-04-20 22:02 50.56851 127.43413 3998 ft 171 kts 257°
2026-04-20 22:02 50.56655 127.42212 4002 ft 171 kts 257°
2026-04-20 22:02 50.56230 127.40476 3997 ft 172 kts 238°
2026-04-20 22:02 50.55465 127.39018 3999 ft 173 kts 224°
2026-04-20 22:03 50.54539 127.37808 4035 ft 174 kts 218°
2026-04-20 22:03 50.53566 127.36677 4012 ft 173 kts 217°
2026-04-20 22:03 50.52275 127.35206 4001 ft 173 kts 218°
2026-04-20 22:03 50.51590 127.33723 3985 ft 168 kts 260°
2026-04-20 22:04 50.51495 127.32497 4014 ft 168 kts 266°
2026-04-20 22:04 50.51038 127.30828 3998 ft 171 kts 224°
2026-04-20 22:04 50.49963 127.30102 3998 ft 173 kts 179°
2026-04-20 22:04 50.48870 127.30740 4003 ft 171 kts 133°
2026-04-20 22:05 50.48379 127.32362 4011 ft 166 kts 91°
2026-04-20 22:05 50.48463 127.34169 4006 ft 166 kts 79°
2026-04-20 22:05 50.48668 127.35955 3999 ft 166 kts 77°
2026-04-20 22:05 50.48891 127.37738 3999 ft 166 kts 77°
2026-04-20 22:06 50.49118 127.39519 3997 ft 166 kts 77°
2026-04-20 22:06 50.49345 127.41300 3999 ft 166 kts 77°
2026-04-20 22:06 50.49570 127.43059 4000 ft 166 kts 77°
2026-04-20 22:06 50.49798 127.44840 4002 ft 166 kts 77°
2026-04-20 22:07 50.50026 127.46624 4002 ft 166 kts 77°
2026-04-20 22:07 50.50254 127.48406 4001 ft 166 kts 77°
2026-04-20 22:07 50.50482 127.50191 4000 ft 166 kts 77°
2026-04-20 22:07 50.50710 127.51974 3998 ft 166 kts 77°
2026-04-20 22:08 50.50867 127.53769 4006 ft 168 kts 94°
2026-04-20 22:08 50.50393 127.55419 4023 ft 171 kts 134°
2026-04-20 22:08 50.49347 127.56241 4035 ft 172 kts 175°
2026-04-20 22:08 50.48219 127.55780 4008 ft 171 kts 221°
2026-04-20 22:09 50.47641 127.54216 3937 ft 168 kts 264°
2026-04-20 22:09 50.47872 127.52489 3913 ft 164 kts 306°
2026-04-20 22:09 50.48729 127.51361 3975 ft 163 kts 339°
2026-04-20 22:09 50.49838 127.51218 3981 ft 163 kts 14°
2026-04-20 22:10 50.50761 127.52193 3882 ft 163 kts 57°
2026-04-20 22:10 50.50995 127.53909 4018 ft 166 kts 99°
2026-04-20 22:10 50.50456 127.55536 4026 ft 172 kts 138°
2026-04-20 22:10 50.49366 127.56154 3976 ft 172 kts 188°
2026-04-20 22:11 50.48380 127.55240 3967 ft 169 kts 240°
2026-04-20 22:11 50.48146 127.53488 3980 ft 167 kts 281°
2026-04-20 22:11 50.48707 127.51977 3994 ft 163 kts 326°
2026-04-20 22:11 50.49767 127.51428 4015 ft 163 kts 349°
2026-04-20 22:12 50.50874 127.51052 4001 ft 163 kts 347°
2026-04-20 22:12 50.51978 127.50641 4000 ft 163 kts 347°
2026-04-20 22:12 50.53082 127.50225 3998 ft 165 kts 347°
2026-04-20 22:12 50.54201 127.49790 4000 ft 166 kts 347°
2026-04-20 22:13 50.55324 127.49353 4001 ft 166 kts 347°
2026-04-20 22:13 50.56447 127.48918 4000 ft 166 kts 347°
2026-04-20 22:13 50.57551 127.48482 4000 ft 166 kts 347°
2026-04-20 22:13 50.58667 127.48033 4003 ft 166 kts 347°
2026-04-20 22:14 50.59781 127.47589 3998 ft 164 kts 347°
2026-04-20 22:14 50.60827 127.46908 3999 ft 165 kts 318°
2026-04-20 22:14 50.61326 127.45319 4000 ft 168 kts 273°
2026-04-20 22:14 50.60971 127.43623 4004 ft 170 kts 231°
2026-04-20 22:15 50.60101 127.42331 3851 ft 170 kts 219°
2026-04-20 22:15 50.59160 127.41194 3590 ft 171 kts 217°
2026-04-20 22:15 50.58224 127.40101 3347 ft 169 kts 217°
2026-04-20 22:15 50.57264 127.38987 3048 ft 169 kts 217°
2026-04-20 22:16 50.56317 127.37930 2781 ft 169 kts 210°
2026-04-20 22:16 50.55222 127.37525 2622 ft 158 kts 173°
2026-04-20 22:16 50.54184 127.37845 2427 ft 147 kts 168°
2026-04-20 22:16 50.53186 127.38155 2093 ft 146 kts 168°
2026-04-20 22:17 50.52203 127.38468 2028 ft 145 kts 167°
2026-04-20 22:17 50.51208 127.38788 1983 ft 147 kts 167°
2026-04-20 22:17 50.50207 127.39112 1853 ft 147 kts 167°
2026-04-20 22:17 50.49210 127.39436 1675 ft 146 kts 168°
2026-04-20 22:18 50.48219 127.39758 1461 ft 144 kts 168°
2026-04-20 22:18 50.47243 127.40075 1255 ft 143 kts 168°
2026-04-20 22:18 50.46276 127.40390 1059 ft 142 kts 168°
2026-04-20 22:18 50.45319 127.40709 922 ft 141 kts 168°
2026-04-20 22:19 50.44366 127.41018 758 ft 139 kts 168°
2026-04-20 22:19 50.43434 127.41308 660 ft 126 kts 168°
2026-04-20 22:19 50.42741 127.41535 657 ft 77 kts 168°
2026-04-20 22:19 50.42371 127.41652 661 ft 32 kts 169°
2026-04-20 22:20 50.42271 127.41635 659 ft 3 kts 255°
2026-04-20 22:20 50.42266 127.41594 659 ft 6 kts 264°
2026-04-20 22:20 50.42259 127.41488 658 ft 14 kts 260°
2026-04-20 22:20 50.42256 127.41467 658 ft 0 kts 258°
2026-04-20 22:21 50.42256 127.41464 658 ft 3 kts 258°
2026-04-20 22:21 50.42241 127.41352 658 ft 18 kts 258°
2026-04-20 22:21 50.42212 127.41139 657 ft 10 kts 258°
2026-04-20 22:22 50.42204 127.41077 657 ft 2 kts 258°
2026-04-20 22:22 50.42203 127.41067 657 ft 0 kts 267°
2026-04-20 22:22 50.42196 127.41016 657 ft 12 kts 255°
2026-04-20 22:22 50.42162 127.40911 658 ft 9 kts 193°
2026-04-20 22:23 50.42106 127.40925 658 ft 8 kts 172°
2026-04-20 22:23 50.42057 127.40933 658 ft 6 kts 173°
2026-04-20 22:23 50.42017 127.40945 658 ft 5 kts 167°
2026-04-20 22:23 50.41997 127.40968 658 ft 2 kts 108°
2026-04-20 22:24 50.41998 127.40983 658 ft 1 kts 72°
2026-04-20 22:24 50.42000 127.40991 658 ft 3 kts 70°
2026-04-20 22:24 50.42001 127.40996 658 ft 0 kts 77°